This demonstration page uses our WeatherBlox Daily Observations layout. Learn more.

Left ArrowRight Arrow

44.8408, -93.29828

Hourly Observations for November 28, 2015

Temp ( °F °C ) Dew Point ( °F °C ) Humidity (%) Winds ( mph kmh ) Pressure ( in mb ) Visibility ( mi km ) Precip ( " mm )
12:53 am 00:53 Clear 18 -7.8 13 -10.6 81 81 Calm 30.57 1035 10 16 0.00 0.00
1:53 am 01:53 Clear 17 -8.3 14 -10 88 88 Calm 30.56 1035 10 16 0.00 0.00
2:53 am 02:53 Clear 16 -8.9 13 -10.6 88 88 SSW 3 6 30.56 1035 10 16 0.00 0.00
3:53 am 03:53 Clear 16 -8.9 12 -11.1 84 84 SSW 3 6 30.55 1034 10 16 0.00 0.00
4:53 am 04:53 Clear 15 -9.4 12 -11.1 88 88 Calm 30.54 1034 10 16 0.00 0.00
5:53 am 05:53 Clear 15 -9.4 12 -11.1 88 88 Calm 30.54 1034 10 16 0.00 0.00
6:53 am 06:53 Mostly Clear 15 -9.4 10 -12.2 80 80 SSW 3 6 30.53 1034 10 16 0.00 0.00
7:53 am 07:53 Mostly Sunny 14 -10 11 -11.7 88 88 S 6 9 30.51 1033 7 11 0.00 0.00
8:53 am 08:53 Mostly Sunny 17 -8.3 12 -11.1 80 80 SW 5 7 30.51 1033 7 11 0.00 0.00
9:53 am 09:53 Sunny 20 -6.7 14 -10 78 78 SSW 5 7 30.52 1034 9 14 0.00 0.00
10:53 am 10:53 Sunny 24 -4.4 14 -10 65 65 SSW 7 11 30.50 1033 10 16 0.00 0.00
11:53 am 11:53 Sunny 26 -3.3 15 -9.4 63 63 SSW 8 13 30.48 1032 10 16 0.00 0.00
12:53 pm 12:53 Sunny 29 -1.7 15 -9.4 56 56 SW 8 13 30.46 1032 10 16 0.00 0.00
1:53 pm 13:53 Sunny 29 -1.7 16 -8.9 58 58 SSW 7 11 30.45 1031 10 16 0.00 0.00
2:53 pm 14:53 Sunny 30 -1.1 16 -8.9 56 56 SW 8 13 30.44 1031 10 16 0.00 0.00
3:53 pm 15:53 Sunny 30 -1.1 16 -8.9 56 56 SW 6 9 30.42 1030 10 16 0.00 0.00
4:53 pm 16:53 Clear 28 -2.2 17 -8.3 63 63 SSW 5 7 30.42 1030 10 16 0.00 0.00
5:53 pm 17:53 Clear 27 -2.8 16 -8.9 63 63 SW 6 9 30.42 1030 10 16 0.00 0.00
6:53 pm 18:53 Clear 25 -3.9 15 -9.4 66 66 Calm 30.42 1030 10 16 0.00 0.00
7:53 pm 19:53 Clear 25 -3.9 15 -9.4 66 66 VRB 5 7 30.44 1031 10 16 0.00 0.00
8:53 pm 20:53 Clear 22 -5.6 14 -10 71 71 Calm 30.45 1031 10 16 0.00 0.00
9:53 pm 21:53 Clear 22 -5.6 13 -10.6 68 68 SSW 5 7 30.44 1031 9 14 0.00 0.00
10:53 pm 22:53 Clear 21 -6.1 12 -11.1 68 68 Calm 30.44 1031 9 14 0.00 0.00
11:53 pm 23:53 Clear 20 -6.7 12 -11.1 71 71 Calm 30.43 1031 8 13 0.00 0.00

Powered by AerisWeather